Regional Weather Roundup
Issued by NWS Little Rock, AR

Home | Current Version | Previous Version | Text Only | Print | Product List | Glossary On
Versions: 1 2 3 4 5 6 7 8 9 10 11 12 13 14 15 16 17 18 19 20 21 22 23 24 25 26 27 28 29 30 31 32 33 34 35 36 37 38 39 40 41 42 43 44 45 46 47 48 49 50
000
ASUS44 KLZK 251205
RWRLZK

WEATHER ROUNDUP FOR ARKANSAS
NATIONAL WEATHER SERVICE LITTLE ROCK AR
700 AM CDT SAT APR 25 2015

NOTE: "FAIR" INDICATES FEW OR NO CLOUDS BELOW 12,000 FEET WITH NO
SIGNIFICANT WEATHER AND/OR OBSTRUCTIONS TO VISIBILITY.

ARZ001-003-010-029-251300-
NORTHWEST ARKANSAS

CITY           SKY/WX    TMP DP  RH WIND       PRES   REMARKS
FAYETTEVILLE   CLEAR     59  57  93 S10       29.59R
6HR MIN TEMP:  58; 6HR MAX TEMP:  61;

FORT SMITH     FOG       56  55  97 N7        29.60R VSB<1/4
6HR MIN TEMP:  55; 6HR MAX TEMP:  60;

HARRISON       CLEAR     62  55  77 VRB6G17   29.57S
6HR MIN TEMP:  59; 6HR MAX TEMP:  62; 6HR PCP: TRACE;

BENTONVILLE    PTCLDY    59  54  82 SW10G20   29.58S
ROGERS         CLEAR     59  55  87 SW14      29.58R
6HR MIN TEMP:  59; 6HR MAX TEMP:  60;

SILOAM SPGS    PTCLDY    57  52  82 SW9G18    29.60R
6HR MIN TEMP:  57; 6HR MAX TEMP:  61;

HIGHFILL       PTCLDY    60  55  83 SW12G22   29.57R
6HR MIN TEMP:  60; 6HR MAX TEMP:  61;

SPRINGDALE     CLEAR     61  55  82 SW12G23   29.60R
$$

ARZ004-005-016-251300-
NORTH CENTRAL ARKANSAS

CITY           SKY/WX    TMP DP  RH WIND       PRES   REMARKS
BATESVILLE     CLOUDY    63  61  94 SW5       29.62S
6HR MIN TEMP:  59; 6HR MAX TEMP:  63;

FLIPPIN        CLEAR     61  57  88 S8        29.53F
6HR MIN TEMP:  59; 6HR MAX TEMP:  63;

MTN HOME       CLEAR     59  57  93 S12       29.54F
6HR MIN TEMP:  56; 6HR MAX TEMP:  60;

$$

ARZ040-041-251300-
WEST CENTRAL ARKANSAS

CITY           SKY/WX    TMP DP  RH WIND       PRES   REMARKS
MENA           CLOUDY    63  61  94 W5        29.68S
MOUNT IDA      CLEAR     62  58  86 CALM      29.63F
6HR MIN TEMP:  59; 6HR MAX TEMP:  63;

$$

ARZ009-017-025-026-028-251300-
NORTHEAST ARKANSAS

CITY           SKY/WX    TMP DP  RH WIND       PRES   REMARKS
CORNING          N/A     59  59 100 S14       29.60F
JONESBORO      CLOUDY    61  60  97 SW13G23   29.63F
6HR MIN TEMP:  57; 6HR MAX TEMP:  61;

NEWPORT        CLOUDY    62  62 100 S16       29.64F FOG
6HR MIN TEMP:  58; 6HR MAX TEMP:  62;

WALNUT RIDGE   CLOUDY    61  57  88 S17       29.60F
6HR MIN TEMP:  57; 6HR MAX TEMP:  61;

BLYTHEVILLE    PTCLDY    57  57 100 S3        29.65S FOG
6HR MIN TEMP:  56; 6HR MAX TEMP:  60; 6HR PCP: TRACE;

$$

ARZ022-023-033-042-044-251300-
CENTRAL ARKANSAS

CITY           SKY/WX    TMP DP  RH WIND       PRES   REMARKS
LITTLE ROCK    CLOUDY    64  60  87 SW14      29.67R
6HR MIN TEMP:  62; 6HR MAX TEMP:  64;

N LITTLE ROCK    N/A     62  62 100 SW16G24   29.67R
6HR MIN TEMP:  60; 6HR MAX TEMP:  62;

JACKSONVILLE   CLOUDY    63  62  97 SW12      29.64S
6HR MIN TEMP:  61; 6HR MAX TEMP:  63;

SEARCY         CLOUDY    62  61  96 S9G16     29.65F
6HR MIN TEMP:  59; 6HR MAX TEMP:  62; 6HR PCP:  0.01;

HOT SPRINGS    CLOUDY    63  60  90 S5        29.67F
6HR MIN TEMP:  61; 6HR MAX TEMP:  63;

RUSSELLVILLE   CLEAR     59  58  96 S7        29.62S
6HR MIN TEMP:  59; 6HR MAX TEMP:  61;

CLINTON        CLOUDY    63  61  94 S3        29.63F
$$

ARZ036-251300-
EAST ARKANSAS

CITY           SKY/WX    TMP DP  RH WIND       PRES   REMARKS
WEST MEMPHIS   CLOUDY    62  62 100 S14       29.66S
6HR MIN TEMP:  59; 6HR MAX TEMP:  62; 6HR PCP:  0.08;

$$

ARZ050-053-066-070-073-251300-
SOUTHWEST ARKANSAS

CITY           SKY/WX    TMP DP  RH WIND       PRES   REMARKS
ARKADELPHIA    CLOUDY    62  62 100 CALM      29.71R FOG
6HR MIN TEMP:  61; 6HR MAX TEMP:  63;

CAMDEN         CLOUDY    63  59  88 CALM      29.71S FOG
TEXARKANA      CLOUDY    65  64  97 SW10      29.69S
6HR MIN TEMP:  60; 6HR MAX TEMP:  65;

EL DORADO      CLOUDY    64  63  96 S7        29.72R
6HR MIN TEMP:  61; 6HR MAX TEMP:  64;

DE QUEEN       CLOUDY    63  62  97 S5        29.67R FOG
6HR MIN TEMP:  62; 6HR MAX TEMP:  64;

$$

ARZ056-057-069-251300-
SOUTHEAST ARKANSAS

CITY           SKY/WX    TMP DP  RH WIND       PRES   REMARKS
PINE BLUFF     CLOUDY    63  62  97 SW9       29.70S
6HR MIN TEMP:  60; 6HR MAX TEMP:  63; 6HR PCP:  0.01;

STUTTGART      CLOUDY    63  59  88 S17       29.68F
6HR MIN TEMP:  61; 6HR MAX TEMP:  63; 6HR PCP:  0.03;

MONTICELLO     CLOUDY    65  63  93 SW7       29.72R
6HR MIN TEMP:  62; 6HR MAX TEMP:  65; 6HR PCP:  0.02;


$$




USA.gov is the U.S. government's official web portal to all federal, state and local government web resources and services.